| time (UTC) | temp F | wind direction | speed knots | gust knots | rain 1hr in | rain 24hr in | rain mn in | humidity % | barometer mb |
| 20260502204539 | 51 | 172 | 0.0 | 1.7 | 0.00 | 0.00 | 0.00 | 39 | 1013.6 |
| 20260502203038 | 52 | 253 | 0.0 | 0.9 | 0.00 | 0.00 | 0.00 | 35 | 1013.7 |
| 20260502201538 | 54 | 253 | 0.0 | 1.7 | 0.00 | 0.00 | 0.00 | 32 | 1013.5 |
| 20260502200036 | 54 | 253 | 0.0 | 1.7 | 0.00 | 0.00 | 0.00 | 35 | 1013.5 |
| 20260502194538 | 54 | 253 | 0.0 | 1.7 | 0.00 | 0.00 | 0.00 | 32 | 1013.7 |
| 20260502193040 | 54 | 253 | 0.0 | 1.7 | 0.00 | 0.00 | 0.00 | 37 | 1013.7 |
| 20260502191535 | 53 | 253 | 0.9 | 2.6 | 0.00 | 0.00 | 0.00 | 39 | 1014.1 |
| 20260502190041 | 53 | 253 | 0.9 | 2.6 | 0.00 | 0.00 | 0.00 | 33 | 1014.2 |
| 20260502184553 | 53 | 252 | 0.0 | 1.7 | 0.00 | 0.00 | 0.00 | 35 | 1014.3 |
| 20260502183032 | 54 | 252 | 0.0 | 1.7 | 0.00 | 0.00 | 0.00 | 34 | 1014.2 |
| 20260502181532 | 54 | 251 | 0.0 | 2.6 | 0.00 | 0.00 | 0.00 | 36 | 1014.2 |
| 20260502163014 | 48 | 281 | 0.0 | 1.7 | 0.00 | 0.00 | 0.00 | 41 | 1014.9 |
| 20260502161513 | 47 | 280 | 1.7 | 5.2 | 0.00 | 0.00 | 0.00 | 46 | 1015.0 |
| 20260502151510 | 44 | 31 | 0.0 | 1.7 | 0.00 | 0.00 | 0.00 | 52 | 1015.2 |
| 20260502123106 | 40 | 49 | 0.0 | 0.0 | 0.00 | 0.00 | 0.00 | 66 | 1014.7 |
| 20260502121558 | 40 | 49 | 0.0 | 0.0 | 0.00 | 0.00 | 0.00 | 68 | 1014.3 |
| 20260502114600 | 40 | 49 | 0.0 | 0.0 | 0.00 | 0.00 | 0.00 | 68 | 1013.9 |
| 20260502113056 | 40 | 49 | 0.0 | 0.0 | 0.00 | 0.00 | 0.00 | 69 | 1014.0 |
| 20260502111556 | 41 | 49 | 0.0 | 0.0 | 0.00 | 0.00 | 0.00 | 69 | 1013.7 |
| 20260502110059 | 41 | 49 | 0.0 | 0.0 | 0.00 | 0.00 | 0.00 | 68 | 1013.5 |
| 20260502104555 | 41 | 49 | 0.0 | 0.0 | 0.00 | 0.00 | 0.00 | 68 | 1013.6 |
| 20260502103058 | 41 | 49 | 0.0 | 0.0 | 0.00 | 0.00 | 0.00 | 69 | 1013.4 |
| 20260502101616 | 41 | 49 | 0.0 | 0.0 | 0.00 | 0.00 | 0.00 | 69 | 1013.2 |
| 20260502100114 | 41 | 49 | 0.0 | 0.0 | 0.00 | 0.00 | 0.00 | 69 | 1013.3 |
| 20260502071533 | 44 | 49 | 0.0 | 0.9 | 0.00 | 0.00 | 0.00 | 67 | 1014.0 |
| 20260502070044 | 44 | 49 | 0.0 | 0.0 | 0.00 | 0.00 | 0.00 | 67 | 1014.1 |
| 20260502064530 | 44 | 49 | 0.0 | 0.0 | 0.00 | 0.00 | 0.00 | 67 | 1014.0 |
| 20260502063033 | 44 | 49 | 0.0 | 0.0 | 0.00 | 0.00 | 0.00 | 66 | 1014.0 |
| 20260502061529 | 44 | 49 | 0.0 | 0.0 | 0.00 | 0.00 | 0.00 | 65 | 1013.9 |
| 20260502060028 | 45 | 49 | 0.0 | 0.9 | 0.00 | 0.00 | 0.00 | 65 | 1014.1 |
| 20260502054524 | 45 | 49 | 0.0 | 0.0 | 0.00 | 0.00 | 0.00 | 65 | 1014.5 |
| 20260502053024 | 45 | 49 | 0.0 | 0.0 | 0.00 | 0.00 | 0.00 | 65 | 1014.5 |
| 20260502051527 | 46 | 49 | 0.0 | 0.9 | 0.00 | 0.00 | 0.00 | 63 | 1014.6 |
| 20260502050020 | 46 | 49 | 0.0 | 0.9 | 0.00 | 0.00 | 0.00 | 61 | 1014.7 |
| 20260502044519 | 47 | 49 | 0.0 | 0.0 | 0.00 | 0.00 | 0.00 | 59 | 1014.7 |
| 20260502043016 | 47 | 49 | 0.0 | 0.0 | 0.00 | 0.00 | 0.00 | 56 | 1014.6 |
| 20260502041513 | 48 | 49 | 0.0 | 0.9 | 0.00 | 0.00 | 0.00 | 53 | 1014.6 |
| 20260502040010 | 49 | 49 | 0.0 | 0.0 | 0.00 | 0.00 | 0.00 | 52 | 1014.6 |
| 20260502034509 | 49 | 49 | 0.0 | 0.0 | 0.00 | 0.00 | 0.00 | 50 | 1014.6 |
| 20260502033009 | 49 | 49 | 0.0 | 0.0 | 0.00 | 0.00 | 0.00 | 49 | 1014.8 |
| 20260502031508 | 49 | 49 | 0.0 | 0.0 | 0.00 | 0.00 | 0.00 | 51 | 1014.9 |
| 20260502030008 | 49 | 49 | 0.0 | 0.9 | 0.00 | 0.00 | 0.00 | 48 | 1015.2 |
| 20260502024523 | 49 | 49 | 0.0 | 0.0 | 0.00 | 0.00 | 0.00 | 48 | 1015.0 |
| 20260502023007 | 49 | 49 | 0.0 | 0.0 | 0.00 | 0.00 | 0.00 | 46 | 1015.2 |
| 20260502021507 | 49 | 49 | 0.0 | 0.9 | 0.00 | 0.00 | 0.00 | 45 | 1015.1 |
| 20260502020006 | 49 | 49 | 0.0 | 0.9 | 0.00 | 0.00 | 0.00 | 44 | 1015.0 |
| 20260502014519 | 49 | 49 | 0.0 | 0.9 | 0.00 | 0.00 | 0.00 | 43 | 1014.7 |
| 20260502013005 | 49 | 49 | 0.0 | 0.9 | 0.00 | 0.00 | 0.00 | 44 | 1014.7 |
| 20260502011506 | 50 | 49 | 0.0 | 1.7 | 0.00 | 0.00 | 0.00 | 43 | 1014.4 |
| 20260502010005 | 50 | 49 | 0.0 | 1.7 | 0.00 | 0.00 | 0.00 | 43 | 1014.1 |
| 20260502004504 | 50 | 49 | 0.0 | 1.7 | 0.00 | 0.00 | 0.00 | 42 | 1014.3 |
| 20260502003000 | 51 | 49 | 0.0 | 1.7 | 0.00 | 0.00 | 0.00 | 40 | 1014.0 |
| 20260502001501 | 51 | 49 | 0.9 | 2.6 | 0.00 | 0.00 | 0.00 | 39 | 1014.0 |
| 20260502000001 | 52 | 252 | 0.0 | 1.7 | 0.00 | 0.00 | 0.00 | 39 | 1013.8 |
| 20260501234601 | 53 | 252 | 0.0 | 0.9 | 0.00 | 0.00 | 0.00 | 39 | 1013.4 |
| 20260501233059 | 54 | 252 | 0.0 | 1.7 | 0.00 | 0.00 | 0.00 | 40 | 1013.1 |
| 20260501231603 | 55 | 252 | 0.0 | 0.9 | 0.00 | 0.00 | 0.00 | 42 | 1013.1 |
| 20260501230058 | 57 | 252 | 0.0 | 0.0 | 0.00 | 0.00 | 0.00 | 44 | 1012.8 |
| 20260501224601 | 57 | 252 | 0.0 | 1.7 | 0.00 | 0.00 | 0.00 | 43 | 1012.8 |
| 20260501223109 | 58 | 252 | 0.0 | 0.9 | 0.00 | 0.00 | 0.00 | 43 | 1013.2 |
| 20260501221558 | 58 | 252 | 0.0 | 0.9 | 0.00 | 0.00 | 0.00 | 44 | 1013.1 |
| 20260501220054 | 58 | 252 | 0.0 | 0.0 | 0.00 | 0.00 | 0.00 | 45 | 1013.5 |
| 20260501214554 | 59 | 252 | 0.0 | 2.6 | 0.00 | 0.00 | 0.00 | 46 | 1013.5 |
| 20260501213109 | 59 | 252 | 0.0 | 1.7 | 0.00 | 0.00 | 0.00 | 45 | 1013.2 |
| 20260501211551 | 59 | 252 | 0.9 | 2.6 | 0.00 | 0.00 | 0.00 | 45 | 1013.2 |
| 20260501210052 | 59 | 252 | 1.7 | 3.5 | 0.00 | 0.00 | 0.00 | 43 | 1013.2 |